Dewpoint
71 69 70 70 72 71 70 70 70 71 72 72 73 72 72 71 71 71 70 70 70 69
71 73 72 72 72 72 71 72 71 71 72 72 73 72 72 72 71 71 71 70 70 70
71 71 71 72 72 72 72 72 72 71 72 72 72 72 72 71 71 71 72 72 71 70
71 71 71 72 72 72 72 72 72 72 71 71 71 72 71 71 71 71 71 71 72 71
67 68 69 69 70 71 70 70 71 71 71 71 71 72 71 71 72 71 71 71 71 71
63 64 65 67 69 69 69 70 69 68 70 71 71 71 72 72 72 72 72 71 71 70
61 63 64 66 67 68 69 68 68 69 70 69 69 70 72 72 72 72 72 72 72 71
61 62 63 63 64 66 67 67 68 69 69 70 70 70 70 71 71 71 71 72 72 72
59 59 60 61 62 64 64 65 66 67 67 68 69 67 67 68 67 67 68 68 71 72
58 58 58 59 60 60 61 63 64 65 66 66 67 66 65 67 68 68 67 67 69 71
56 56 57 57 57 58 59 59 61 63 64 65 66 64 64 65 66 66 67 67 67 68
55 55 55 55 56 57 57 57 58 61 64 64 64 63 63 64 66 66 67 68 68 68
54 53 54 54 56 56 56 56 58 59 60 61 63 61 61 63 65 65 66 67 67 66
54 53 53 53 55 55 57 57 57 59 60 61 62 63 60 59 63 65 65 66 66 66
Lifted_Index
-7 -7 -6 -6 -6 -6 -6 -6 -5 -5 -5 -5 -5 -4 -4 -4 -4 -4 -4 -4 -4 -4
-7 -6 -6 -6 -6 -6 -6 -6 -6 -5 -5 -5 -5 -5 -4 -4 -4 -4 -4 -4 -4 -4
-5 -5 -5 -5 -6 -6 -6 -6 -6 -6 -5 -5 -5 -5 -4 -4 -4 -4 -4 -4 -4 -4
-3 -3 -3 -3 -4 -4 -5 -5 -5 -5 -5 -5 -5 -5 -5 -5 -4 -4 -4 -4 -4 -4
0 0 -0 -1 -1 -2 -3 -3 -4 -5 -5 -5 -5 -5 -6 -5 -5 -5 -5 -4 -4 -4
3 3 2 1 1 -0 -1 -2 -3 -3 -4 -4 -4 -5 -5 -5 -5 -5 -5 -5 -5 -5
5 5 4 3 2 1 0 -1 -2 -2 -3 -3 -4 -4 -5 -5 -5 -5 -5 -5 -5 -5
6 6 6 5 4 3 1 0 -1 -2 -3 -3 -4 -4 -5 -5 -5 -5 -5 -5 -5 -5
7 7 7 7 6 4 3 1 0 -1 -2 -2 -3 -4 -4 -4 -4 -4 -4 -4 -4 -5
8 8 8 7 7 6 4 3 2 1 0 -1 -2 -2 -3 -3 -3 -3 -3 -3 -3 -4
9 9 8 8 8 7 6 4 3 2 1 1 -0 -1 -2 -2 -2 -3 -3 -3 -3 -3
8 8 8 8 8 8 7 6 5 3 3 2 1 0 -0 -1 -1 -2 -2 -3 -3 -4
8 7 7 7 7 7 7 6 6 4 4 3 2 2 1 0 -1 -1 -2 -2 -3 -3
7 7 6 6 6 6 6 6 5 5 4 4 3 2 2 1 -0 -1 -1 -2 -2 -2